[[{"header":{"parameterUnit":"m.s-1","parameterCategory":1,"la1":30.2991,"la2":30.254,"lo1":-89.0895,"lo2":-89.0444,"dy":0.0017,"dx":0.0017,"nx":28,"ny":28,"refTime":"2024-07-25T21:00:00:Z","depth":0,"parameterNumber":2,"parameterNumberName":"U-component_of_WINDS"},"data":[0,0,0,0,0,0,0,0,0,0,0,0,0,0,0,0,0,0,0,0,0,0,0,0,0,0,0,0,0,0,0,0,0,0,0,0,0,0,0,0,0,0,0,0,0,0,0,0,0,0,0,0,0,0,0,0,0,0,-0.1882,-0.1883,0,-0.1912,-0.1912,-0.1912,-0.198,-0.1981,-0.1983,-0.1984,-0.2007,-0.2006,-0.2005,0,0,0,0,0,0,0,0,0,0,0,0,0,-0.1879,-0.1879,-0.1882,-0.1883,-0.1883,-0.1912,-0.1912,-0.1912,-0.198,-0.1981,-0.1983,-0.1985,-0.2007,-0.2006,-0.2005,0,0,0,0,0,0,0,0,0,0,0,0,0,-0.1891,-0.1878,-0.1882,-0.192,-0.1924,-0.1912,-0.1912,-0.1913,-0.1979,-0.1981,-0.1983,-0.1985,-0.2007,-0.2006,-0.2005,-0.1956,0,0,-0.2002,-0.2002,0,0,0,0,0,0,0,0,-0.189,-0.1891,-0.1914,-0.1917,-0.1922,-0.1944,-0.1919,-0.1927,-0.1979,-0.1958,-0.1984,-0.1986,-0.1984,-0.1985,-0.1986,-0.1958,-0.1959,-0.2002,-0.2001,-0.2001,-0.2001,0,0,0,0,0,0,0,-0.1889,-0.189,-0.1894,-0.1914,-0.1919,-0.1934,-0.1938,-0.1921,-0.1958,-0.196,-0.1965,-0.1968,-0.1986,-0.1986,-0.1987,-0.1959,-0.2002,-0.2001,-0.2,-0.2,-0.1894,-0.1892,0,0,0,0,0,0,-0.1884,-0.1889,-0.1893,-0.1895,-0.1911,-0.1932,-0.1937,-0.1935,-0.1959,-0.1965,-0.1966,-0.1971,-0.1987,-0.1988,-0.1988,-0.1933,-0.2001,-0.2,-0.1999,-0.1896,-0.1893,-0.1891,0,0,0,0,0,0,-0.1884,-0.1884,-0.1892,-0.1893,-0.1896,-0.193,-0.1927,-0.1934,-0.1935,-0.1964,-0.197,-0.196,-0.1989,-0.1989,-0.1965,-0.1935,-0.1999,-0.1998,-0.1899,-0.1895,-0.1892,-0.1823,0,0,0,0,0,0,-0.1883,-0.1883,-0.1866,-0.1893,-0.1895,-0.1869,-0.1925,-0.1933,-0.1933,-0.194,-0.1959,-0.1964,-0.1991,-0.1966,-0.1964,-0.1934,-0.1998,-0.1901,-0.1897,-0.1893,-0.1828,-0.1817,-0.1809,0,0,0,0,0,-0.1883,-0.1843,-0.1865,-0.1865,-0.1875,-0.1867,-0.1869,-0.1902,-0.1931,-0.1913,-0.1932,-0.1964,-0.1939,-0.1963,-0.1961,-0.1931,-0.1903,-0.1898,-0.1894,-0.1832,-0.1819,-0.1809,0,0,0,0,0,0,-0.1809,-0.1847,-0.1872,-0.184,-0.185,-0.1879,-0.1858,-0.1887,-0.1887,-0.1893,-0.1932,-0.1936,-0.1906,-0.1916,-0.1942,-0.1886,-0.1926,-0.1921,-0.188,-0.1868,-0.1859,-0.1857,-0.1997,0,0,0,0,0,-0.179,-0.1782,-0.1816,-0.1784,-0.1789,-0.1822,-0.182,-0.1845,-0.1856,-0.186,-0.1877,-0.1885,-0.188,-0.1875,-0.1871,-0.183,-0.1835,-0.1809,-0.1799,-0.1791,-0.1785,-0.1765,-0.1754,-0.1875,-0.1875,-0.1875,0,0,-0.1748,-0.1768,-0.1761,-0.177,-0.1781,-0.1771,-0.1825,-0.1812,-0.1805,-0.1857,-0.1836,-0.1849,-0.1861,-0.1828,-0.1815,-0.1836,-0.1754,-0.1785,-0.1778,-0.1777,-0.1759,-0.1748,-0.1738,-0.1871,-0.1872,-0.1873,0,0,-0.1668,-0.1682,-0.1659,-0.167,-0.1687,-0.171,-0.1704,-0.173,-0.1741,-0.1721,-0.1761,-0.1752,-0.1741,-0.1748,-0.175,-0.1676,-0.1705,-0.1673,-0.1622,-0.1603,-0.1593,-0.1585,-0.1558,-0.1548,-0.1668,-0.1667,-0.1667,0,-0.1613,-0.1602,-0.1642,-0.1628,-0.163,-0.1681,-0.1657,-0.1665,-0.1678,-0.1679,-0.1703,-0.1692,-0.1703,-0.1673,-0.1656,-0.1655,-0.1649,-0.167,-0.1592,-0.1584,-0.1577,-0.1552,-0.1542,-0.1664,-0.1664,-0.1664,-0.1665,0,-0.1535,-0.1527,-0.1505,-0.1521,-0.1522,-0.1502,-0.1537,-0.1533,-0.1558,-0.1578,-0.1558,-0.1573,-0.1574,-0.1569,-0.1592,-0.1543,-0.1556,-0.1585,-0.1627,-0.1561,-0.1538,-0.1529,-0.1658,-0.1659,-0.166,-0.1661,0,0,-0.1406,-0.1447,-0.1438,-0.1447,-0.1471,-0.1465,-0.1448,-0.1452,-0.1447,-0.1455,-0.1441,-0.1432,-0.1461,-0.1463,-0.1488,-0.147,-0.1411,-0.1502,-0.1503,-0.1484,-0.1358,-0.1335,-0.1324,-0.1431,-0.1429,-0.1428,-0.1357,0,-0.1331,-0.1307,-0.1343,-0.1309,-0.1303,-0.1352,-0.1337,-0.1349,-0.1368,-0.1364,-0.1384,-0.1377,-0.1415,-0.1417,-0.1402,-0.1421,-0.1386,-0.1427,-0.1417,-0.1416,-0.1412,-0.1312,-0.1288,-0.122,-0.1348,-0.1347,-0.1346,0,-0.124,-0.1248,-0.1214,-0.1243,-0.1241,-0.1227,-0.1235,-0.1231,-0.1246,-0.1261,-0.1265,-0.1296,-0.128,-0.1321,-0.1299,-0.1326,-0.1325,-0.1334,-0.1332,-0.1331,-0.1376,-0.1308,-0.1199,-0.1188,-0.1332,-0.1333,-0.1334,0,-0.115,-0.1151,-0.1133,-0.1138,-0.1171,-0.116,-0.1173,-0.1191,-0.1191,-0.1197,-0.1198,-0.12,-0.1201,-0.1202,-0.1233,-0.126,-0.1207,-0.1251,-0.1218,-0.1217,-0.1203,-0.1204,-0.1092,-0.1203,-0.1203,-0.1203,-0.1204,0,-0.1062,-0.1039,-0.1093,-0.1081,-0.1057,-0.1099,-0.1074,-0.1091,-0.1107,-0.1098,-0.114,-0.1131,-0.1172,-0.1166,-0.119,-0.1169,-0.1168,-0.1179,-0.1186,-0.1175,-0.1174,-0.1174,-0.1179,-0.1201,-0.1201,-0.1202,-0.1202,0,-0.0956,-0.0992,-0.0974,-0.1008,-0.1016,-0.0997,-0.1025,-0.1015,-0.1038,-0.1026,-0.1026,-0.106,-0.1056,-0.1088,-0.1088,-0.1104,-0.1071,-0.1086,-0.1067,-0.1071,-0.1037,-0.1039,-0.092,-0.0907,-0.1027,-0.1026,-0.1025,0,-0.0898,-0.0882,-0.0916,-0.0915,-0.0926,-0.0923,-0.0925,-0.0966,-0.0966,-0.0984,-0.0971,-0.0971,-0.0973,-0.0964,-0.0988,-0.0989,-0.1004,-0.0962,-0.1004,-0.0995,-0.1003,-0.1003,-0.1002,-0.0953,-0.0951,-0.095,-0.0949,0,-0.079,-0.0809,-0.0812,-0.0821,-0.0823,-0.0832,-0.0842,-0.0838,-0.0883,-0.088,-0.0879,-0.088,-0.0884,-0.0883,-0.0889,-0.09,-0.0931,-0.0936,-0.0929,-0.0917,-0.0907,-0.0912,-0.1042,-0.0938,-0.0939,-0.094,-0.0941,-0.0941,-0.0706,-0.0696,-0.0718,-0.072,-0.0734,-0.0744,-0.0736,-0.076,-0.076,-0.0767,-0.0791,-0.0785,-0.0802,-0.0814,-0.0823,-0.0817,-0.0837,-0.0826,-0.0823,-0.082,-0.0814,-0.0909,-0.0819,-0.0819,-0.0819,-0.082,-0.082,0,-0.0601,-0.0619,-0.0621,-0.0637,-0.0638,-0.0671,-0.0685,-0.0684,-0.0679,-0.0693,-0.0696,-0.0694,-0.0694,-0.0719,-0.0722,-0.0713,-0.0728,-0.0713,-0.0713,-0.0715,-0.0796,-0.0802,-0.0701,-0.0701,-0.0701,-0.0701,-0.0701,-0.0701,-0.0546,-0.053,-0.0552,-0.0543,-0.0561,-0.0558,-0.0563,-0.0572,-0.0584,-0.0581,-0.0583,-0.0601,-0.0619,-0.0624,-0.0626,-0.0633,-0.0632,-0.0612,-0.0624,-0.0698,-0.0709,-0.072,-0.0727,-0.0611,-0.0611,-0.0544,-0.0543,-0.0543]},{"header":{"parameterUnit":"m.s-1","parameterCategory":1,"la1":30.2991,"la2":30.254,"lo1":-89.0895,"lo2":-89.0444,"dy":0.0017,"dx":0.0017,"nx":28,"ny":28,"refTime":"2024-07-25T21:00:00:Z","depth":0,"parameterNumber":3,"parameterNumberName":"V-component_of_WINDS"},"data":[0,0,0,0,0,0,0,0,0,0,0,0,0,0,0,0,0,0,0,0,0,0,0,0,0,0,0,0,0,0,0,0,0,0,0,0,0,0,0,0,0,0,0,0,0,0,0,0,0,0,0,0,0,0,0,0,0,0,0.8936,0.8934,0,0.8834,0.8832,0.8831,0.8709,0.8707,0.8705,0.8703,0.8594,0.8593,0.8592,0,0,0,0,0,0,0,0,0,0,0,0,0,0.9021,0.902,0.8936,0.8934,0.8933,0.8834,0.8832,0.8831,0.8709,0.8707,0.8704,0.8702,0.8595,0.8593,0.8592,0,0,0,0,0,0,0,0,0,0,0,0,0,0.8958,0.902,0.8936,0.886,0.8852,0.8834,0.8832,0.8831,0.8709,0.8707,0.8704,0.8701,0.8595,0.8593,0.8592,0.8638,0,0,0.8587,0.8586,0,0,0,0,0,0,0,0,0.8962,0.8955,0.8873,0.8865,0.8857,0.8781,0.8822,0.8766,0.871,0.8764,0.8703,0.87,0.8658,0.8651,0.8638,0.8633,0.8628,0.8586,0.8585,0.8585,0.8584,0,0,0,0,0,0,0,0.8966,0.8958,0.8895,0.8872,0.8862,0.883,0.8818,0.8811,0.8728,0.8759,0.875,0.8739,0.8653,0.864,0.8635,0.8627,0.8586,0.8585,0.8584,0.8583,0.8653,0.8656,0,0,0,0,0,0,0.8982,0.8963,0.8898,0.8892,0.8903,0.8831,0.8818,0.8808,0.8728,0.8713,0.8742,0.8734,0.8645,0.8637,0.8631,0.8679,0.8585,0.8583,0.8582,0.8651,0.8654,0.8657,0,0,0,0,0,0,0.8985,0.8978,0.8902,0.8925,0.8913,0.8833,0.8823,0.8808,0.8794,0.8715,0.8699,0.8744,0.8642,0.8633,0.8637,0.8673,0.8582,0.8581,0.8647,0.8652,0.8656,0.8777,0,0,0,0,0,0,0.8988,0.8979,0.8997,0.8926,0.8912,0.8913,0.8825,0.8808,0.8792,0.8781,0.8713,0.8699,0.8639,0.8641,0.8636,0.8669,0.8579,0.8643,0.8649,0.8654,0.8769,0.8785,0.8798,0,0,0,0,0,0.8991,0.9034,0.8999,0.8991,0.8933,0.8915,0.8907,0.8838,0.8796,0.8812,0.8761,0.8701,0.8671,0.8642,0.8635,0.8669,0.8641,0.8647,0.8654,0.8763,0.8782,0.8798,0,0,0,0,0,0,0.911,0.9024,0.8983,0.9005,0.8969,0.8894,0.8913,0.8861,0.8834,0.8825,0.8739,0.8725,0.874,0.8705,0.8674,0.8709,0.8647,0.8652,0.8732,0.8749,0.8763,0.8771,0.8578,0,0,0,0,0,0.9139,0.9133,0.9057,0.9084,0.9068,0.8994,0.8983,0.8934,0.8892,0.8876,0.8825,0.8785,0.8767,0.8756,0.8734,0.8764,0.8746,0.8784,0.8798,0.881,0.8816,0.8828,0.8844,0.8678,0.8678,0.8678,0,0,0.9198,0.915,0.9151,0.9106,0.9072,0.9067,0.8982,0.8979,0.8974,0.8874,0.8876,0.8838,0.8788,0.8805,0.881,0.8776,0.8858,0.8819,0.8829,0.8828,0.8836,0.8852,0.8866,0.8683,0.8682,0.8681,0,0,0.9303,0.9267,0.9285,0.9253,0.9203,0.9153,0.9158,0.9092,0.9063,0.9064,0.8989,0.8981,0.8951,0.8918,0.8898,0.8991,0.8934,0.8987,0.9062,0.9074,0.9087,0.9099,0.9131,0.9144,0.8992,0.8993,0.8993,0,0.9383,0.9372,0.93,0.9303,0.9285,0.9197,0.9214,0.9186,0.9131,0.912,0.9084,0.9044,0.9004,0.9012,0.9035,0.9022,0.9023,0.8993,0.9092,0.9102,0.9111,0.9141,0.9154,0.8999,0.8999,0.8998,0.8997,0,0.9472,0.9466,0.9487,0.9438,0.9422,0.9432,0.936,0.9353,0.9305,0.926,0.9261,0.921,0.9177,0.9175,0.9128,0.9176,0.9157,0.9108,0.9043,0.9135,0.9162,0.9173,0.9009,0.9006,0.9004,0.9003,0,0,0.9648,0.956,0.9569,0.9545,0.9484,0.9477,0.9483,0.9452,0.9447,0.9412,0.9413,0.9391,0.9345,0.9321,0.927,0.9281,0.9358,0.923,0.9227,0.9255,0.9407,0.9445,0.946,0.9321,0.9322,0.9324,0.9411,0,0.9741,0.9747,0.9683,0.9705,0.9698,0.9615,0.9619,0.9582,0.954,0.9527,0.9479,0.9464,0.9405,0.939,0.9398,0.9347,0.9387,0.934,0.932,0.932,0.9334,0.9474,0.9513,0.9598,0.9422,0.9423,0.9425,0,0.985,0.9823,0.9846,0.9784,0.9778,0.9784,0.975,0.9739,0.9695,0.9663,0.9638,0.958,0.9579,0.9519,0.9516,0.9485,0.9473,0.9447,0.9449,0.9443,0.9378,0.9471,0.9623,0.9636,0.944,0.9439,0.9438,0,0.9975,0.9944,0.9954,0.9937,0.9865,0.987,0.9841,0.9793,0.9779,0.9749,0.9738,0.9709,0.9692,0.967,0.9604,0.9566,0.9609,0.9543,0.9581,0.9583,0.9593,0.9594,0.9745,0.9587,0.9587,0.9587,0.9587,0,1.0085,1.0102,1.0009,1.0015,1.0031,0.9957,0.9975,0.9936,0.9895,0.9891,0.9817,0.9814,0.9728,0.9716,0.9664,0.967,0.9663,0.9636,0.9622,0.9642,0.9646,0.9633,0.9625,0.959,0.9589,0.9589,0.9588,0,1.0227,1.0166,1.0171,1.0103,1.0086,1.0101,1.0042,1.0044,0.9998,0.9994,0.9988,0.9915,0.9896,0.9829,0.9793,0.9759,0.978,0.9754,0.9796,0.9787,0.9829,0.9826,0.9977,0.9992,0.9826,0.9828,0.9829,0,1.0301,1.0312,1.0246,1.0239,1.0213,1.0202,1.0188,1.0115,1.0102,1.0053,1.0061,1.0037,1.0013,0.9987,0.993,0.9902,0.9873,0.9928,0.9869,0.9889,0.9873,0.9874,0.9874,0.9941,0.9943,0.9945,0.9946,0,1.0438,1.0408,1.039,1.0363,1.0348,1.0322,1.0292,1.029,1.0209,1.0198,1.018,1.0162,1.0126,1.0103,1.0066,1.0033,0.9976,0.9966,0.9973,0.9994,1.0018,1.0005,0.9831,0.9963,0.9961,0.996,0.9959,0.9958,1.0547,1.0554,1.0509,1.0492,1.0462,1.0436,1.0435,1.0389,1.0373,1.0339,1.0297,1.0283,1.0238,1.0183,1.0154,1.0141,1.011,1.0121,1.0123,1.0127,1.0137,1.0021,1.0134,1.0134,1.0133,1.0133,1.0132,0,1.0681,1.0648,1.0633,1.0594,1.0581,1.0531,1.0495,1.0487,1.0476,1.044,1.0419,1.0397,1.0374,1.0316,1.0287,1.0288,1.0261,1.0283,1.0281,1.0275,1.0167,1.0163,1.0305,1.0305,1.0305,1.0305,1.0305,1.0305,1.0748,1.0756,1.0721,1.0713,1.0679,1.0667,1.0651,1.0626,1.0596,1.0576,1.0558,1.052,1.0474,1.0442,1.0418,1.0401,1.0393,1.0424,1.0399,1.0299,1.0282,1.0266,1.0263,1.0423,1.0423,1.0507,1.0508,1.0509]}]]